,,Stat6,,Stat2,,Stat8,,Stat9,,Stat10,,Wind1,,Wind1,
time,status,PA1M_AVG,status,PR1M_SUM,status,RH1M_AVG,status,SR1M_AVG,status,TA1M_AVG,status,W1dAve1m,status,W1sAve1m,
2004-08-19, 00:00:00,VALID,919.628,VALID,0,VALID,98.6358,VALID,-0.0849042,VALID,19.617,VALID,337,VALID,0.397104,
2004-08-19, 00:01:00,VALID,919.602,VALID,0,VALID,98.6625,VALID,-0.0169808,VALID,19.6073,VALID,10,VALID,1.05301,
2004-08-19, 00:02:01,VALID,919.583,VALID,0,VALID,98.7375,VALID,-0.0339617,VALID,19.5979,VALID,8,VALID,0.99707,
2004-08-19, 00:03:01,VALID,919.57,VALID,0,VALID,98.8812,VALID,-0.0509425,VALID,19.5882,VALID,17,VALID,0.506541,
2004-08-19, 00:04:00,VALID,919.548,VALID,0,VALID,98.9703,VALID,-0.0339617,VALID,19.5912,VALID,75,VALID,0.356105,
2004-08-19, 00:05:00,VALID,919.541,VALID,0,VALID,99.0402,VALID,0,VALID,19.5808,VALID,306,VALID,0.342383,
2004-08-19, 00:06:01,VALID,919.507,VALID,0,VALID,99.1139,VALID,-0.0339617,VALID,19.6009,VALID,29,VALID,0.419792,
2004-08-19, 00:07:00,VALID,919.473,VALID,0,VALID,99.0186,VALID,-0.0339617,VALID,19.5907,VALID,24,VALID,0.995908,
2004-08-19, 00:08:00,VALID,919.444,VALID,0,VALID,99.0351,VALID,-0.0169808,VALID,19.5813,VALID,3,VALID,0.6516,
2004-08-19, 00:09:00,VALID,919.432,VALID,0,VALID,99.058,VALID,-0.0509425,VALID,19.5587,VALID,318,VALID,0.394159,
2004-08-19, 00:10:00,VALID,919.423,VALID,0,VALID,99.0885,VALID,-0.0339617,VALID,19.5651,VALID,16,VALID,0.893111,
2004-08-19, 00:11:00,VALID,919.425,VALID,0,VALID,99.175,VALID,-0.0339617,VALID,19.5619,VALID,36,VALID,0.740473,
2004-08-19, 00:12:01,VALID,919.42,VALID,0,VALID,99.2538,VALID,-0.0509425,VALID,19.5778,VALID,359,VALID,0.523065,
2004-08-19, 00:13:00,VALID,919.396,VALID,0,VALID,99.2309,VALID,-0.0339617,VALID,19.5875,VALID,20,VALID,0.644345,
2004-08-19, 00:14:00,VALID,919.409,VALID,0,VALID,99.2882,VALID,-0.0169808,VALID,19.6039,VALID,18,VALID,0.343928,
2004-08-19, 00:15:00,VALID,919.439,VALID,0,VALID,99.3568,VALID,-0.0339617,VALID,19.6265,VALID,18,VALID,0.272529,
2004-08-19, 00:16:00,VALID,919.456,VALID,0,VALID,99.2843,VALID,-0.0339617,VALID,19.6461,VALID,47,VALID,0.288553,
2004-08-19, 00:17:00,VALID,919.439,VALID,0,VALID,99.325,VALID,0.0169808,VALID,19.6555,VALID,31,VALID,0.618823,
2004-08-19, 00:18:01,VALID,919.411,VALID,0,VALID,99.2869,VALID,-0.0169808,VALID,19.6742,VALID,319,VALID,1.57143,
2004-08-19, 00:19:01,VALID,919.418,VALID,0,VALID,99.2131,VALID,-0.0509425,VALID,19.7174,VALID,31,VALID,0.749219,
2004-08-19, 00:20:00,VALID,919.411,VALID,0,VALID,99.1457,VALID,-0.0339617,VALID,19.7233,VALID,198,VALID,0.728924,
2004-08-19, 00:21:00,VALID,919.403,VALID,0,VALID,99.1381,VALID,-0.0169808,VALID,19.7323,VALID,231,VALID,0.307106,
2004-08-19, 00:22:00,VALID,919.428,VALID,0,VALID,99.3021,VALID,-0.0169808,VALID,19.7616,VALID,14,VALID,0.8663,
2004-08-19, 00:23:00,VALID,919.421,VALID,0,VALID,99.4077,VALID,0,VALID,19.7904,VALID,18,VALID,0.584872,
2004-08-19, 00:24:00,VALID,919.459,VALID,0,VALID,99.4611,VALID,0,VALID,19.8264,VALID,17,VALID,0.402876,
2004-08-19, 00:25:00,VALID,919.422,VALID,0.2,VALID,99.4268,VALID,0.0169808,VALID,19.8232,VALID,19,VALID,1.23828,
2004-08-19, 00:26:00,VALID,919.449,VALID,0.2,VALID,99.4738,VALID,-0.0169808,VALID,19.8095,VALID,11,VALID,0.856136,
2004-08-19, 00:27:01,VALID,919.453,VALID,0.2,VALID,99.4929,VALID,-0.0169808,VALID,19.82,VALID,17,VALID,1.03343,
2004-08-19, 00:28:00,VALID,919.476,VALID,0.2,VALID,99.559,VALID,-0.0169808,VALID,19.8237,VALID,47,VALID,0.614397,
2004-08-19, 00:29:00,VALID,919.493,VALID,0,VALID,99.5209,VALID,-0.0339617,VALID,19.807,VALID,96,VALID,1.01261,
2004-08-19, 00:30:00,VALID,919.487,VALID,0.2,VALID,99.5908,VALID,0,VALID,19.7911,VALID,7,VALID,1.66094,
2004-08-19, 00:31:01,VALID,919.51,VALID,0.2,VALID,99.6391,VALID,-0.0169808,VALID,19.768,VALID,308,VALID,2.03008,
2004-08-19, 00:32:00,VALID,919.524,VALID,0.2,VALID,99.6862,VALID,0,VALID,19.7392,VALID,230,VALID,1.69922,
2004-08-19, 00:33:00,VALID,919.568,VALID,0.2,VALID,99.8375,VALID,0,VALID,19.7363,VALID,339,VALID,1.87184,
2004-08-19, 00:34:00,VALID,919.585,VALID,0,VALID,99.7014,VALID,-0.0339617,VALID,19.6906,VALID,66,VALID,1.26172,
2004-08-19, 00:35:01,VALID,919.568,VALID,0.2,VALID,99.8006,VALID,0,VALID,19.6617,VALID,101,VALID,2.08691,
2004-08-19, 00:36:00,VALID,919.57,VALID,0,VALID,99.8716,VALID,-0.0509425,VALID,19.6227,VALID,74,VALID,1.69922,
2004-08-19, 00:37:00,VALID,919.615,VALID,0,VALID,100,VALID,0,VALID,19.6389,VALID,6,VALID,1.19531,
2004-08-19, 00:38:00,VALID,919.663,VALID,0,VALID,100,VALID,-0.0169808,VALID,19.6297,VALID,112,VALID,0.926417,
2004-08-19, 00:39:00,VALID,919.644,VALID,0.2,VALID,100,VALID,-0.0679233,VALID,19.5939,VALID,53,VALID,0.999399,
2004-08-19, 00:40:00,VALID,919.645,VALID,0,VALID,100,VALID,-0.0339617,VALID,19.5972,VALID,25,VALID,1.74082,
2004-08-19, 00:41:01,VALID,919.561,VALID,0.2,VALID,100,VALID,-0.0169808,VALID,19.6039,VALID,49,VALID,1.20751,
2004-08-19, 00:42:00,VALID,919.542,VALID,0,VALID,100,VALID,-0.0169808,VALID,19.5803,VALID,44,VALID,2.31529,
2004-08-19, 00:43:00,VALID,919.505,VALID,0,VALID,100,VALID,-0.0339617,VALID,19.5547,VALID,194,VALID,1.8125,
2004-08-19, 00:44:00,VALID,919.486,VALID,0,VALID,100,VALID,-0.0339617,VALID,19.4904,VALID,351,VALID,2.56892,
2004-08-19, 00:45:00,VALID,919.505,VALID,0,VALID,100,VALID,-0.0509425,VALID,19.4683,VALID,280,VALID,1.6081,
2004-08-19, 00:46:01,VALID,919.52,VALID,0.2,VALID,100,VALID,-0.0679233,VALID,19.4357,VALID,188,VALID,1.30505,
2004-08-19, 00:47:01,VALID,919.512,VALID,0,VALID,100,VALID,-0.0169808,VALID,19.4007,VALID,110,VALID,1.11428,
2004-08-19, 00:48:00,VALID,919.529,VALID,0,VALID,100,VALID,-0.0679233,VALID,19.3942,VALID,58,VALID,1.03178,
2004-08-19, 00:49:01,VALID,919.385,VALID,0,VALID,100,VALID,-0.0509425,VALID,19.3389,VALID,181,VALID,3.01753,
2004-08-19, 00:50:00,VALID,919.445,VALID,0,VALID,100,VALID,-0.0169808,VALID,19.2713,VALID,259,VALID,1.95294,
2004-08-19, 00:51:00,VALID,919.399,VALID,0,VALID,100,VALID,-0.0169808,VALID,19.2097,VALID,280,VALID,2.27972,
2004-08-19, 00:52:01,VALID,919.344,VALID,0.2,VALID,100,VALID,-0.0339617,VALID,19.1479,VALID,19,VALID,1.80011,
2004-08-19, 00:53:00,VALID,919.36,VALID,0,VALID,100,VALID,0,VALID,19.1449,VALID,45,VALID,1.74647,
2004-08-19, 00:54:00,VALID,919.379,VALID,0,VALID,100,VALID,-0.0169808,VALID,19.1263,VALID,37,VALID,1.45967,
2004-08-19, 00:55:00,VALID,919.405,VALID,0,VALID,100,VALID,-0.0339617,VALID,19.1124,VALID,39,VALID,1.59727,
2004-08-19, 00:56:00,VALID,919.384,VALID,0,VALID,100,VALID,0,VALID,19.1069,VALID,76,VALID,1.58822,
2004-08-19, 00:57:01,VALID,919.412,VALID,0,VALID,100,VALID,-0.0509425,VALID,19.0707,VALID,92,VALID,1.86328,
2004-08-19, 00:58:00,VALID,919.353,VALID,0,VALID,100,VALID,0,VALID,19.0548,VALID,66,VALID,1.43883,
2004-08-19, 00:59:00,VALID,919.364,VALID,0,VALID,100,VALID,0,VALID,19.0287,VALID,50,VALID,1.75236,
2004-08-19, 01:00:00,VALID,919.339,VALID,0,VALID,100,VALID,-0.0169808,VALID,19.0389,VALID,32,VALID,1.47237,
2004-08-19, 01:01:00,VALID,919.378,VALID,0.2,VALID,100,VALID,-0.0339617,VALID,19.0356,VALID,22,VALID,1.16441,
2004-08-19, 01:02:01,VALID,919.361,VALID,0,VALID,100,VALID,-0.0339617,VALID,19.0649,VALID,305,VALID,1.23802,
2004-08-19, 01:03:00,VALID,919.272,VALID,0,VALID,100,VALID,-0.0339617,VALID,19.0324,VALID,225,VALID,2.33867,
2004-08-19, 01:04:00,VALID,919.323,VALID,0,VALID,100,VALID,-0.0339617,VALID,19.0068,VALID,293,VALID,1.65892,
2004-08-19, 01:05:00,VALID,919.287,VALID,0,VALID,100,VALID,-0.0339617,VALID,18.9937,VALID,73,VALID,0.698864,
2004-08-19, 01:06:01,VALID,919.312,VALID,0,VALID,100,VALID,-0.0339617,VALID,19.0133,VALID,34,VALID,0.934549,
2004-08-19, 01:07:00,VALID,919.328,VALID,0,VALID,100,VALID,-0.0509425,VALID,19.0232,VALID,93,VALID,0.666109,
2004-08-19, 01:08:00,VALID,919.279,VALID,0,VALID,100,VALID,-0.0339617,VALID,19.0101,VALID,67,VALID,1.17969,
2004-08-19, 01:09:01,VALID,919.345,VALID,0,VALID,100,VALID,-0.0509425,VALID,18.9939,VALID,243,VALID,1.5021,
2004-08-19, 01:10:00,VALID,919.266,VALID,0.2,VALID,100,VALID,-0.0339617,VALID,18.9584,VALID,290,VALID,1.07148,
2004-08-19, 01:11:01,VALID,919.276,VALID,0,VALID,100,VALID,-0.0339617,VALID,18.9201,VALID,269,VALID,1.33454,
2004-08-19, 01:12:00,VALID,919.308,VALID,0,VALID,100,VALID,-0.0339617,VALID,18.8648,VALID,218,VALID,2.19989,
2004-08-19, 01:13:00,VALID,919.368,VALID,0,VALID,100,VALID,0,VALID,18.8196,VALID,326,VALID,1.4332,
2004-08-19, 01:14:01,VALID,919.381,VALID,0,VALID,100,VALID,-0.0509425,VALID,18.8261,VALID,57,VALID,1.15021,
2004-08-19, 01:15:01,VALID,919.41,VALID,0,VALID,100,VALID,-0.0169808,VALID,18.8295,VALID,74,VALID,0.797991,
2004-08-19, 01:16:01,VALID,919.38,VALID,0,VALID,100,VALID,-0.0509425,VALID,18.8069,VALID,78,VALID,2.2603,
2004-08-19, 01:17:01,VALID,919.396,VALID,0,VALID,100,VALID,-0.0509425,VALID,18.7742,VALID,17,VALID,1.41444,
2004-08-19, 01:18:00,VALID,919.367,VALID,0,VALID,100,VALID,-0.0509425,VALID,18.7322,VALID,216,VALID,1.24419,
2004-08-19, 01:19:01,VALID,919.404,VALID,0,VALID,100,VALID,-0.0509425,VALID,18.6905,VALID,117,VALID,1.31177,
2004-08-19, 01:20:00,VALID,919.439,VALID,0,VALID,100,VALID,-0.0339617,VALID,18.6515,VALID,127,VALID,1.61074,
2004-08-19, 01:21:01,VALID,919.427,VALID,0,VALID,100,VALID,-0.0169808,VALID,18.6132,VALID,216,VALID,1.14311,
2004-08-19, 01:22:01,VALID,919.355,VALID,0,VALID,100,VALID,-0.0339617,VALID,18.6031,VALID,270,VALID,1.26705,
2004-08-19, 01:23:01,VALID,919.413,VALID,0,VALID,100,VALID,0,VALID,18.5934,VALID,275,VALID,1.7848,
2004-08-19, 01:24:00,VALID,919.375,VALID,0,VALID,100,VALID,0.0339617,VALID,18.5547,VALID,245,VALID,1.38853,
2004-08-19, 01:25:00,VALID,919.358,VALID,0,VALID,100,VALID,-0.0339617,VALID,18.5353,VALID,199,VALID,0.644626,
2004-08-19, 01:26:01,VALID,919.398,VALID,0,VALID,100,VALID,0,VALID,18.5773,VALID,323,VALID,1.32608,
2004-08-19, 01:27:01,VALID,919.359,VALID,0,VALID,100,VALID,-0.0169808,VALID,18.5867,VALID,15,VALID,1.76142,
2004-08-19, 01:28:00,VALID,919.364,VALID,0,VALID,100,VALID,0.0169808,VALID,18.5678,VALID,222,VALID,1.44717,
2004-08-19, 01:29:01,VALID,919.352,VALID,0,VALID,100,VALID,-0.0509425,VALID,18.5616,VALID,194,VALID,0.848899,
2004-08-19, 01:30:01,VALID,919.334,VALID,0,VALID,100,VALID,-0.0169808,VALID,18.5549,VALID,195,VALID,0.514898,
2004-08-19, 01:31:01,VALID,919.31,VALID,0,VALID,100,VALID,0,VALID,18.5616,VALID,232,VALID,0.532315,
2004-08-19, 01:32:01,VALID,919.272,VALID,0,VALID,100,VALID,-0.0169808,VALID,18.5512,VALID,262,VALID,1.74628,
2004-08-19, 01:33:01,VALID,919.23,VALID,0,VALID,100,VALID,-0.0169808,VALID,18.507,VALID,249,VALID,2.09803,
2004-08-19, 01:34:01,VALID,919.208,VALID,0,VALID,100,VALID,0,VALID,18.5,VALID,271,VALID,1.4574,
2004-08-19, 01:35:01,VALID,919.172,VALID,0,VALID,100,VALID,0,VALID,18.503,VALID,348,VALID,0.36101,
2004-08-19, 01:36:01,VALID,919.177,VALID,0,VALID,100,VALID,-0.0169808,VALID,18.5425,VALID,41,VALID,1.0558,
2004-08-19, 01:37:01,VALID,919.146,VALID,0,VALID,100,VALID,-0.0169808,VALID,18.5775,VALID,352,VALID,0.861919,
2004-08-19, 01:38:01,VALID,919.106,VALID,0,VALID,100,VALID,0,VALID,18.5715,VALID,263,VALID,1.07292,
2004-08-19, 01:39:01,VALID,919.06,VALID,0,VALID,100,VALID,-0.0169808,VALID,18.5517,VALID,289,VALID,1.17969,
2004-08-19, 01:40:01,VALID,919.038,VALID,0,VALID,100,VALID,0,VALID,18.5683,VALID,93,VALID,0.676897,
2004-08-19, 01:41:01,VALID,919.047,VALID,0.2,VALID,100,VALID,-0.0169808,VALID,18.571,VALID,143,VALID,0.536519,
2004-08-19, 01:42:01,VALID,919.028,VALID,0,VALID,100,VALID,-0.0339617,VALID,18.6197,VALID,37,VALID,0.202553,
2004-08-19, 01:43:01,VALID,919.009,VALID,0,VALID,100,VALID,-0.0339617,VALID,18.6199,VALID,136,VALID,0.819222,
2004-08-19, 01:44:01,VALID,918.99,VALID,0,VALID,100,VALID,0.0169808,VALID,18.6423,VALID,319,VALID,0.593205,
2004-08-19, 01:45:01,VALID,918.971,VALID,0,VALID,100,VALID,-0.0169808,VALID,18.655,VALID,310,VALID,0.889101,
2004-08-19, 01:46:01,VALID,918.959,VALID,0,VALID,100,VALID,0,VALID,18.6619,VALID,153,VALID,0.534339,
2004-08-19, 01:47:01,VALID,918.977,VALID,0,VALID,100,VALID,0,VALID,18.6421,VALID,119,VALID,0.509146,
2004-08-19, 01:48:01,VALID,918.934,VALID,0,VALID,100,VALID,0,VALID,18.6587,VALID,175,VALID,0.968403,
2004-08-19, 01:49:01,VALID,918.942,VALID,0,VALID,100,VALID,-0.0339617,VALID,18.6617,VALID,188,VALID,1.18693,
2004-08-19, 01:50:01,VALID,918.925,VALID,0,VALID,100,VALID,0.0169808,VALID,18.6552,VALID,92,VALID,0.678961,
2004-08-19, 01:51:01,VALID,918.889,VALID,0,VALID,100,VALID,0,VALID,18.6783,VALID,22,VALID,1.93501,
2004-08-19, 01:52:01,VALID,918.917,VALID,0,VALID,100,VALID,0,VALID,18.7202,VALID,29,VALID,0.782269,
2004-08-19, 01:53:01,VALID,918.902,VALID,0,VALID,100,VALID,-0.0169808,VALID,18.7294,VALID,6,VALID,0.87358,
2004-08-19, 01:54:01,VALID,918.904,VALID,0,VALID,100,VALID,-0.0169808,VALID,18.7488,VALID,354,VALID,0.866667,
2004-08-19, 01:55:01,VALID,918.928,VALID,0,VALID,100,VALID,0,VALID,18.7553,VALID,39,VALID,0.478981,
2004-08-19, 01:56:01,VALID,918.915,VALID,0,VALID,100,VALID,0,VALID,18.7779,VALID,9,VALID,0.916548,
2004-08-19, 01:57:01,VALID,918.936,VALID,0,VALID,100,VALID,-0.0169808,VALID,18.7903,VALID,12,VALID,0.498728,
2004-08-19, 01:58:01,VALID,918.953,VALID,0,VALID,100,VALID,0,VALID,18.8009,VALID,17,VALID,0.310192,
2004-08-19, 01:59:01,VALID,918.987,VALID,0,VALID,100,VALID,0,VALID,18.8039,VALID,25,VALID,0.620206,
2004-08-19, 02:00:01,VALID,919.005,VALID,0,VALID,100,VALID,-0.0169808,VALID,18.8134,VALID,360,VALID,0.72476,
2004-08-19, 02:01:01,VALID,918.978,VALID,0,VALID,100,VALID,0,VALID,18.8032,VALID,350,VALID,0.909108,
2004-08-19, 02:02:01,VALID,918.981,VALID,0,VALID,100,VALID,-0.0169808,VALID,18.8166,VALID,3,VALID,0.683222,
2004-08-19, 02:03:01,VALID,918.994,VALID,0,VALID,100,VALID,0,VALID,18.8429,VALID,23,VALID,1.65661,
2004-08-19, 02:04:01,VALID,919.014,VALID,0,VALID,100,VALID,0,VALID,18.8489,VALID,20,VALID,1.33939,
2004-08-19, 02:05:01,VALID,918.984,VALID,0,VALID,100,VALID,-0.0339617,VALID,18.8627,VALID,18,VALID,1.62445,
2004-08-19, 02:06:01,VALID,918.997,VALID,0,VALID,100,VALID,0,VALID,18.8846,VALID,24,VALID,1.35709,
2004-08-19, 02:07:00,VALID,918.98,VALID,0,VALID,100,VALID,0,VALID,18.9172,VALID,18,VALID,1.59961,
2004-08-19, 02:08:00,VALID,918.994,VALID,0,VALID,100,VALID,-0.0169808,VALID,18.9167,VALID,4,VALID,0.752287,
2004-08-19, 02:09:00,VALID,918.969,VALID,0,VALID,100,VALID,0,VALID,18.9132,VALID,212,VALID,0.490371,
2004-08-19, 02:10:00,VALID,918.94,VALID,0,VALID,100,VALID,0,VALID,18.9107,VALID,74,VALID,0.865699,
2004-08-19, 02:11:00,VALID,918.925,VALID,0,VALID,100,VALID,0.0169808,VALID,18.8971,VALID,20,VALID,1.41637,
2004-08-19, 02:12:00,VALID,918.831,VALID,0,VALID,100,VALID,0,VALID,18.8968,VALID,17,VALID,2.00703,
2004-08-19, 02:13:00,VALID,918.809,VALID,0,VALID,100,VALID,0.0169808,VALID,18.9162,VALID,66,VALID,0.678013,
2004-08-19, 02:14:00,VALID,918.821,VALID,0,VALID,100,VALID,0.0169808,VALID,18.9197,VALID,23,VALID,1.30505,
2004-08-19, 02:15:00,VALID,918.822,VALID,0,VALID,100,VALID,0.0169808,VALID,18.9164,VALID,344,VALID,1.32085,
2004-08-19, 02:16:00,VALID,918.807,VALID,0,VALID,100,VALID,0,VALID,18.9259,VALID,25,VALID,1.65845,
2004-08-19, 02:17:00,VALID,918.775,VALID,0,VALID,100,VALID,0,VALID,18.9323,VALID,19,VALID,1.75218,
2004-08-19, 02:18:00,VALID,918.785,VALID,0,VALID,100,VALID,0.0509425,VALID,18.9552,VALID,19,VALID,1.08724,
2004-08-19, 02:19:00,VALID,918.773,VALID,0,VALID,100,VALID,0,VALID,18.9649,VALID,28,VALID,0.621271,
2004-08-19, 02:20:00,VALID,918.743,VALID,0,VALID,100,VALID,0.0169808,VALID,18.9579,VALID,19,VALID,1.30399,
2004-08-19, 02:21:00,VALID,918.723,VALID,0,VALID,100,VALID,0.0169808,VALID,18.9425,VALID,17,VALID,1.84728,
2004-08-19, 02:22:00,VALID,918.693,VALID,0,VALID,100,VALID,0,VALID,18.9294,VALID,26,VALID,1.77734,
2004-08-19, 02:23:00,VALID,918.738,VALID,0,VALID,100,VALID,0.0679233,VALID,18.9294,VALID,344,VALID,0.479911,
2004-08-19, 02:24:00,VALID,918.716,VALID,0,VALID,100,VALID,-0.0679233,VALID,18.9271,VALID,19,VALID,0.422247,
2004-08-19, 02:25:00,VALID,918.691,VALID,0,VALID,100,VALID,-0.0679233,VALID,18.9179,VALID,25,VALID,0.191667,
2004-08-19, 02:26:00,VALID,918.657,VALID,0,VALID,100,VALID,-0.101885,VALID,18.902,VALID,40,VALID,0.732422,
2004-08-19, 02:27:00,VALID,918.682,VALID,0,VALID,100,VALID,-0.0679233,VALID,18.9082,VALID,145,VALID,0.59468,
2004-08-19, 02:28:00,VALID,918.655,VALID,0,VALID,100,VALID,-0.0679233,VALID,18.9017,VALID,198,VALID,0.916371,
2004-08-19, 02:29:00,VALID,918.582,VALID,0,VALID,100,VALID,-0.0849042,VALID,18.8853,VALID,331,VALID,1.16164,
2004-08-19, 02:30:00,VALID,918.486,VALID,0,VALID,100,VALID,-0.101885,VALID,18.8796,VALID,296,VALID,3.39753,
2004-08-19, 02:31:00,VALID,918.518,VALID,0,VALID,99.9863,VALID,-0.101885,VALID,18.8667,VALID,249,VALID,1.87147,
2004-08-19, 02:32:00,VALID,918.508,VALID,0,VALID,99.5883,VALID,-0.0849042,VALID,18.895,VALID,317,VALID,0.982171,
2004-08-19, 02:33:00,VALID,918.536,VALID,0,VALID,98.9105,VALID,-0.101885,VALID,18.9728,VALID,258,VALID,0.467226,
2004-08-19, 02:34:00,VALID,918.501,VALID,0,VALID,98.4324,VALID,-0.0849042,VALID,18.9983,VALID,76,VALID,0.328303,
2004-08-19, 02:35:00,VALID,918.464,VALID,0,VALID,98.1768,VALID,-0.0849042,VALID,19.0242,VALID,13,VALID,0.719893,
2004-08-19, 02:36:00,VALID,918.471,VALID,0,VALID,97.747,VALID,-0.101885,VALID,19.0472,VALID,339,VALID,0.8643,
2004-08-19, 02:37:00,VALID,918.468,VALID,0,VALID,97.5321,VALID,-0.0679233,VALID,19.0698,VALID,314,VALID,0.550347,
2004-08-19, 02:38:00,VALID,918.46,VALID,0,VALID,97.5333,VALID,-0.0849042,VALID,19.0761,VALID,20,VALID,0.248095,
2004-08-19, 02:39:00,VALID,918.469,VALID,0,VALID,97.4164,VALID,0,VALID,19.0426,VALID,321,VALID,0.472561,
2004-08-19, 02:40:00,VALID,918.454,VALID,0,VALID,97.4125,VALID,0,VALID,19.0101,VALID,268,VALID,0.702398,
2004-08-19, 02:41:00,VALID,918.409,VALID,0,VALID,97.5283,VALID,0,VALID,19.0043,VALID,4,VALID,0.881138,
2004-08-19, 02:42:00,VALID,918.372,VALID,0,VALID,97.7737,VALID,0,VALID,18.9785,VALID,5,VALID,1.32146,
2004-08-19, 02:43:00,VALID,918.335,VALID,0,VALID,98.0407,VALID,0,VALID,18.9328,VALID,1,VALID,1.41834,
2004-08-19, 02:44:00,VALID,918.319,VALID,0,VALID,98.3154,VALID,0,VALID,18.9042,VALID,341,VALID,0.978516,
2004-08-19, 02:45:00,VALID,918.263,VALID,0,VALID,98.5214,VALID,0,VALID,18.8712,VALID,12,VALID,1.07527,
2004-08-19, 02:46:00,VALID,918.222,VALID,0,VALID,98.7172,VALID,0.0169808,VALID,18.8486,VALID,19,VALID,1.31079,
2004-08-19, 02:47:00,VALID,918.216,VALID,0,VALID,98.8469,VALID,0,VALID,18.8228,VALID,16,VALID,0.855283,
2004-08-19, 02:48:00,VALID,918.216,VALID,0,VALID,98.8215,VALID,-0.0169808,VALID,18.7878,VALID,357,VALID,1.17188,
2004-08-19, 02:49:00,VALID,918.191,VALID,0,VALID,98.941,VALID,0,VALID,18.7811,VALID,9,VALID,2.00746,
2004-08-19, 02:50:00,VALID,918.179,VALID,0,VALID,99.147,VALID,-0.0169808,VALID,18.8042,VALID,7,VALID,2.17014,
2004-08-19, 02:51:00,VALID,918.176,VALID,0,VALID,99.3466,VALID,0.0169808,VALID,18.7938,VALID,11,VALID,2.23723,
2004-08-19, 02:52:00,VALID,918.192,VALID,0,VALID,99.3861,VALID,0,VALID,18.8139,VALID,6,VALID,1.39196,
2004-08-19, 02:53:00,VALID,918.162,VALID,0,VALID,99.3212,VALID,0,VALID,18.8074,VALID,11,VALID,1.568,
2004-08-19, 02:54:00,VALID,918.15,VALID,0,VALID,99.25,VALID,0,VALID,18.8072,VALID,15,VALID,1.42278,
2004-08-19, 02:55:00,VALID,918.115,VALID,0,VALID,99.0847,VALID,0.0339617,VALID,18.7839,VALID,6,VALID,1.67001,
2004-08-19, 02:56:00,VALID,918.105,VALID,0,VALID,98.9728,VALID,0.0169808,VALID,18.7975,VALID,353,VALID,1.42852,
2004-08-19, 02:57:00,VALID,918.083,VALID,0,VALID,98.9296,VALID,0,VALID,18.8012,VALID,351,VALID,1.43359,
2004-08-19, 02:58:00,VALID,918.023,VALID,0,VALID,98.9893,VALID,0.0169808,VALID,18.7905,VALID,324,VALID,1.15075,
2004-08-19, 02:59:00,VALID,918.032,VALID,0,VALID,99.0173,VALID,0,VALID,18.8168,VALID,24,VALID,0.269965,
2004-08-19, 03:00:00,VALID,918.008,VALID,0,VALID,99.0491,VALID,0,VALID,18.8139,VALID,33,VALID,0.940234,
2004-08-19, 03:01:00,VALID,917.963,VALID,0,VALID,98.7681,VALID,-0.0169808,VALID,18.8009,VALID,308,VALID,1.28452,
2004-08-19, 03:02:00,VALID,917.986,VALID,0,VALID,98.4832,VALID,0,VALID,18.7813,VALID,10,VALID,0.511806,
2004-08-19, 03:03:00,VALID,917.949,VALID,0,VALID,98.543,VALID,0,VALID,18.7913,VALID,16,VALID,1.31008,
2004-08-19, 03:04:00,VALID,917.938,VALID,0,VALID,98.4273,VALID,0,VALID,18.7781,VALID,22,VALID,1.4169,
2004-08-19, 03:05:00,VALID,917.96,VALID,0,VALID,98.4781,VALID,0,VALID,18.7557,VALID,28,VALID,0.907158,
2004-08-19, 03:06:00,VALID,917.959,VALID,0,VALID,98.6638,VALID,0,VALID,18.7562,VALID,19,VALID,0.595052,
2004-08-19, 03:07:00,VALID,917.911,VALID,0,VALID,98.604,VALID,0,VALID,18.72,VALID,5,VALID,1.61452,
2004-08-19, 03:08:00,VALID,917.903,VALID,0,VALID,98.5099,VALID,0,VALID,18.6909,VALID,23,VALID,2.27865,
2004-08-19, 03:09:00,VALID,917.901,VALID,0,VALID,98.379,VALID,0,VALID,18.6718,VALID,23,VALID,1.87863,
2004-08-19, 03:10:00,VALID,917.915,VALID,0,VALID,98.3281,VALID,0,VALID,18.6619,VALID,29,VALID,1.71476,
2004-08-19, 03:11:00,VALID,917.924,VALID,0,VALID,98.2315,VALID,0.0169808,VALID,18.6517,VALID,24,VALID,1.06591,
2004-08-19, 03:12:00,VALID,917.883,VALID,0,VALID,98.2493,VALID,0,VALID,18.6686,VALID,30,VALID,1.18973,
2004-08-19, 03:13:00,VALID,917.857,VALID,0,VALID,98.2645,VALID,0,VALID,18.6589,VALID,13,VALID,1.55545,
2004-08-19, 03:14:00,VALID,917.822,VALID,0,VALID,98.309,VALID,0,VALID,18.6165,VALID,360,VALID,1.38247,
2004-08-19, 03:15:00,VALID,917.787,VALID,0,VALID,98.0967,VALID,-0.0339617,VALID,18.6139,VALID,355,VALID,2.83085,
2004-08-19, 03:16:00,VALID,917.802,VALID,0,VALID,97.6262,VALID,0,VALID,18.6269,VALID,323,VALID,1.1184,
2004-08-19, 03:17:00,VALID,917.824,VALID,0,VALID,97.3973,VALID,-0.0169808,VALID,18.6428,VALID,8,VALID,0.865057,
2004-08-19, 03:18:00,VALID,917.789,VALID,0,VALID,97.4761,VALID,0,VALID,18.6326,VALID,19,VALID,1.67515,
2004-08-19, 03:19:00,VALID,917.812,VALID,0,VALID,97.6847,VALID,-0.0169808,VALID,18.6204,VALID,25,VALID,1.11052,
2004-08-19, 03:20:00,VALID,917.825,VALID,0,VALID,97.8487,VALID,0.0169808,VALID,18.5842,VALID,23,VALID,0.972906,
2004-08-19, 03:21:00,VALID,917.816,VALID,0,VALID,98.1234,VALID,-0.0169808,VALID,18.5521,VALID,22,VALID,1.79783,
2004-08-19, 03:22:00,VALID,917.841,VALID,0,VALID,98.3777,VALID,0,VALID,18.5199,VALID,19,VALID,2.18169,
2004-08-19, 03:23:00,VALID,917.821,VALID,0,VALID,98.468,VALID,0,VALID,18.5074,VALID,16,VALID,2.04219,
2004-08-19, 03:24:00,VALID,917.876,VALID,0,VALID,98.3001,VALID,0,VALID,18.498,VALID,4,VALID,0.90734,
2004-08-19, 03:25:00,VALID,917.865,VALID,0,VALID,98.0839,VALID,0,VALID,18.4714,VALID,286,VALID,0.578711,
2004-08-19, 03:26:00,VALID,917.913,VALID,0,VALID,97.8996,VALID,0,VALID,18.498,VALID,12,VALID,1.23472,
2004-08-19, 03:27:00,VALID,917.913,VALID,0,VALID,97.8576,VALID,0,VALID,18.5074,VALID,17,VALID,1.87038,
2004-08-19, 03:28:00,VALID,917.932,VALID,0,VALID,97.8245,VALID,-0.0169808,VALID,18.5236,VALID,359,VALID,1.19622,
2004-08-19, 03:29:00,VALID,917.958,VALID,0,VALID,97.663,VALID,-0.0169808,VALID,18.5005,VALID,341,VALID,0.947359,
2004-08-19, 03:30:00,VALID,917.987,VALID,0,VALID,97.588,VALID,0,VALID,18.5169,VALID,285,VALID,0.882813,
2004-08-19, 03:31:00,VALID,917.932,VALID,0,VALID,97.457,VALID,0.0169808,VALID,18.5233,VALID,219,VALID,1.85992,
2004-08-19, 03:32:00,VALID,917.966,VALID,0,VALID,97.0222,VALID,-0.0169808,VALID,18.5558,VALID,8,VALID,2.32317,
2004-08-19, 03:33:00,VALID,918.021,VALID,0,VALID,97.0031,VALID,0.0339617,VALID,18.5524,VALID,357,VALID,1.38594,
2004-08-19, 03:34:00,VALID,918.078,VALID,0,VALID,96.9611,VALID,-0.0169808,VALID,18.5459,VALID,315,VALID,0.0345204,
2004-08-19, 03:35:00,VALID,918.026,VALID,0,VALID,97.0845,VALID,-0.0169808,VALID,18.53,VALID,360,VALID,0.464063,
2004-08-19, 03:36:00,VALID,918.029,VALID,0,VALID,97.2396,VALID,0,VALID,18.53,VALID,28,VALID,0.62173,
2004-08-19, 03:37:00,VALID,917.993,VALID,0,VALID,97.3286,VALID,0,VALID,18.504,VALID,15,VALID,0.341082,
2004-08-19, 03:38:00,VALID,917.995,VALID,0,VALID,97.3591,VALID,-0.0169808,VALID,18.4848,VALID,354,VALID,0.54633,
2004-08-19, 03:39:00,VALID,918.019,VALID,0,VALID,97.321,VALID,0,VALID,18.4689,VALID,24,VALID,0.280342,